Ithaca, NY

10:45 AM EST on December 13, 2017 (GMT -0500)
Tompkins County

Weather History for KITH - June, 2014

Change the Weather History Date:

Monday, June 16, 2014

  Actual Average Record
Temperature  
Mean Temperature 66 °F -  
Max Temperature 84 °F 76 °F 92 °F (1988)
Min Temperature 50 °F 55 °F 37 °F (1961)
Cooling Degree Days 2    
Growing Degree Days 16 (Base 50)    
Moisture  
Dew Point 58 °F    
Average Humidity 73    
Maximum Humidity 100    
Minimum Humidity 39    
Precipitation  
Precipitation 0.00 in - - ()
Sea Level Pressure  
Sea Level Pressure 30.09 in    
Wind  
Wind Speed 5 mph (SE)    
Max Wind Speed 8 mph    
Max Gust Speed -    
Visibility 10 miles    
Events Rain , Thunderstorm    
Averages and records for this station are not official NWS values.
T = Trace of Precipitation, MM = Missing Value Source: NWS Daily Summary

Daily Weather History Graph

Daily Weather History Graph

Search for Another Location

Airport or City:

Trip Planner

Search our weather history database for the weather conditions in past years. The results will help you decide how hot, cold, wet, or windy it might be!

Date:

Astronomy

Jun. 16, 2014 Rise Set
Actual Time 5:27 AM EDT 8:45 PM EDT
Civil Twilight 4:53 AM EDT 9:20 PM EDT
Nautical Twilight 4:08 AM EDT 10:05 PM EDT
Astronomical Twilight 3:12 AM EDT 11:00 PM EDT
Moon 11:30 PM EDT (6/16) 9:33 AM EDT (6/16)
Length of Visible Light 16h 27m
Length of Day
15h 17m
Waning Gibbous, 83% of the Moon is Illuminated
Jun 16
Waning Gibbous
Jun 19
Last Quarter
Jun 27
New
Jul 5
First Quarter
Jul 12
Full

Hourly Weather History & Observations

Time (EDT) Temp. Heat Index Dew Point Humidity Pressure Visibility Wind Dir Wind Speed Gust Speed Precip Events Conditions
12:56 AM 52.9 °F - 52.9 °F 100% 30.17 in 10.0 mi East 5.8 mph - N/A   Clear
1:56 AM 52.9 °F - 52.0 °F 97% 30.16 in 10.0 mi East 5.8 mph - N/A   Clear
2:56 AM 52.0 °F - 50.9 °F 96% 30.15 in 10.0 mi East 5.8 mph - N/A   Clear
3:56 AM 52.0 °F - 50.9 °F 96% 30.15 in 10.0 mi East 6.9 mph - N/A   Clear
4:56 AM 50.9 °F - 50.0 °F 97% 30.15 in 10.0 mi East 5.8 mph - N/A   Clear
5:56 AM 50.9 °F - 50.0 °F 97% 30.14 in 10.0 mi East 8.1 mph - N/A   Clear
6:28 AM 53.6 °F - 51.8 °F 94% 30.15 in 10.0 mi East 5.8 mph - N/A   Clear
6:56 AM 55.9 °F - 52.9 °F 89% 30.15 in 10.0 mi East 3.5 mph - N/A   Clear
7:56 AM 61.9 °F - 55.9 °F 81% 30.16 in 10.0 mi East 4.6 mph - N/A   Clear
8:56 AM 66.9 °F - 55.9 °F 68% 30.16 in 10.0 mi SE 4.6 mph - N/A   Clear
9:56 AM 72.9 °F - 57.9 °F 59% 30.15 in 10.0 mi South 6.9 mph - N/A   Clear
10:56 AM 75.9 °F - 57.9 °F 54% 30.14 in 10.0 mi SE 4.6 mph - N/A   Clear
11:56 AM 79.9 °F - 52.9 °F 39% 30.12 in 10.0 mi Calm Calm - N/A   Clear
12:56 PM 81.9 °F 81.4 °F 55.9 °F 41% 30.10 in 10.0 mi South 4.6 mph - N/A   Partly Cloudy
1:56 PM 81.9 °F 81.6 °F 56.8 °F 42% 30.08 in 10.0 mi Variable 6.9 mph - N/A   Scattered Clouds
2:56 PM 81.9 °F 82.1 °F 59.0 °F 46% 30.06 in 10.0 mi South 6.9 mph - N/A   Mostly Cloudy
3:56 PM 82.9 °F 83.7 °F 61.9 °F 49% 30.04 in 10.0 mi SSW 6.9 mph - N/A   Mostly Cloudy
4:56 PM 83.8 °F 85.1 °F 63.9 °F 51% 30.02 in 10.0 mi SSE 5.8 mph - N/A   Scattered Clouds
5:56 PM 83.8 °F 85.6 °F 64.9 °F 53% 30.00 in 10.0 mi SW 8.1 mph - N/A   Scattered Clouds
6:56 PM 81.9 °F 83.5 °F 64.9 °F 56% 30.00 in 10.0 mi SSW 5.8 mph - N/A   Scattered Clouds
7:56 PM 79.9 °F - 65.8 °F 62% 30.02 in 10.0 mi SW 5.8 mph - 0.00 in   Mostly Cloudy
8:37 PM 77.0 °F - 66.2 °F 69% 30.03 in 10.0 mi West 5.8 mph - 0.00 in Thunderstorm Thunderstorm
8:56 PM 74.8 °F - 59.0 °F 58% 30.03 in 10.0 mi North 6.9 mph - 0.00 in Rain , Thunderstorm Thunderstorms and Rain
9:35 PM 69.8 °F - 64.4 °F 83% 30.05 in 10.0 mi North 8.1 mph - 0.00 in   Mostly Cloudy
9:56 PM 68.9 °F - 64.9 °F 87% 30.04 in 10.0 mi Calm Calm - 0.00 in   Scattered Clouds
10:07 PM 68.0 °F - 64.4 °F 88% 30.05 in 10.0 mi Calm Calm - N/A Thunderstorm Clear
10:22 PM 66.2 °F - 64.4 °F 94% 30.06 in 10.0 mi Calm Calm - N/A   Mostly Cloudy
10:56 PM 66.9 °F - 63.9 °F 90% 30.06 in 10.0 mi Calm Calm - N/A   Mostly Cloudy
11:56 PM 66.9 °F - 63.9 °F 90% 30.05 in 10.0 mi Calm Calm - N/A   Scattered Clouds